CW8284 Weather Reports


Display with metric or nautical units.
time (UTC)temp
F
wind
direction
speed
MPH
gust
MPH
rain 1hr
in
rain 24hr
in
rain mn
in
humidity
%
barometer
mb
20260902223019 91 270 4.0 7.0 0.00 0.00 0.00 1012.3
20260902222619 92 202 3.0 6.0 0.00 0.00 0.00 1012.2
20260902221018 92 202 2.0 3.0 0.00 0.00 0.00 1012.6
20260902220918 92 225 3.0 6.0 0.00 0.00 0.00 1012.5
20260902220819 92 157 6.0 9.0 0.00 0.00 0.00 1012.7
20260902215819 90 180 1.0 2.0 0.00 0.00 0.00 1012.8
20260902215419 91 157 3.0 5.0 0.00 0.00 0.00 1012.9
20260902215319 91 225 4.0 6.0 0.00 0.00 0.00 1012.6
20260902215219 91 225 3.0 5.0 0.00 0.00 0.00 1012.8
20260902214218 91 225 5.0 11.0 0.00 0.00 0.00 1012.7
20260902214118 91 202 4.0 5.0 0.00 0.00 0.00 1013.0
20260902214019 91 247 4.0 6.0 0.00 0.00 0.00 1012.7
20260902213618 90 202 2.0 4.0 0.00 0.00 0.00 1012.9
20260902213218 89 45 2.0 4.0 0.00 0.00 0.00 1013.0
20260902213151 88 202 3.0 5.0 0.00 0.00 0.00 1013.1
20260902212919 88 247 3.0 5.0 0.00 0.00 0.00 1013.0
20260902212219 88 225 7.0 9.0 0.00 0.00 0.00 1013.0
20260902212119 89 225 6.0 9.0 0.00 0.00 0.00 1013.0
20260902212019 89 225 7.0 8.0 0.00 0.00 0.00 1012.9
20260902211919 89 225 3.0 5.0 0.00 0.00 0.00 1012.9
20260902211819 89 157 4.0 6.0 0.00 0.00 0.00 1013.0
20260902211118 89 225 3.0 6.0 0.00 0.00 0.00 1013.1
20260902211019 89 202 1.0 3.0 0.00 0.00 0.00 1013.0
20260902210919 88 112 2.0 3.0 0.00 0.00 0.00 1012.9
20260902210519 90 225 5.0 8.0 0.00 0.00 0.00 1012.9
20260902210419 90 202 6.0 10.0 0.00 0.00 0.00 1013.2
20260902210019 88 157 1.0 5.0 0.00 0.00 0.00 1013.3
20260902205319 89 225 5.0 7.0 0.00 0.00 0.00 1013.3
20260902204919 89 202 2.0 6.0 0.00 0.00 0.00 1013.5
20260902203619 89 225 4.0 6.0 0.00 0.00 0.00 1013.4
20260902202918 87 315 2.0 3.0 0.00 0.00 0.00 1013.5
20260902202819 87 67 3.0 4.0 0.00 0.00 0.00 1013.6
20260902202719 88 292 3.0 4.0 0.00 0.00 0.00 1013.6
20260902202619 88 292 1.0 2.0 0.00 0.00 0.00 1013.6
20260902201618 85 315 3.0 6.0 0.00 0.00 0.00 1014.1
20260902200319 85 225 3.0 5.0 0.00 0.00 0.00 1013.9
20260902195618 85 225 1.0 2.0 0.00 0.00 0.00 1014.2
20260902195519 85 135 1.0 2.0 0.00 0.00 0.00 1014.1
20260902194219 85 292 1.0 2.0 0.00 0.00 0.00 1014.2
20260902193519 85 247 3.0 5.0 0.00 0.00 0.00 1014.6
20260902193403 85 225 4.0 6.0 0.00 0.00 0.00 1014.2
20260902193219 85 225 2.0 6.0 0.00 0.00 0.00 1014.6
20260902192819 84 315 1.0 2.0 0.00 0.00 0.00 1014.8
20260902192719 84 22 2.0 2.0 0.00 0.00 0.00 1014.7
20260902192318 82 202 1.0 4.0 0.00 0.00 0.00 1014.6
20260902191618 82 202 1.0 3.0 0.00 0.00 0.00 1014.8
20260902190619 85 180 2.0 4.0 0.00 0.00 0.00 1014.5
20260902185619 84 112 1.0 3.0 0.00 0.00 0.00 1015.0
20260902184619 83 202 0.0 1.0 0.00 0.00 0.00 1015.0
20260902184219 82 112 1.0 2.0 0.00 0.00 0.00 1015.1
20260902183619 81 202 1.0 5.0 0.00 0.00 0.00 1014.7
20260902180819 80 157 1.0 3.0 0.00 0.00 0.00 1015.0
20260902180419 79 157 1.0 2.0 0.00 0.00 0.00 1015.1
20260902180319 79 315 1.0 2.0 0.00 0.00 0.00 1015.1
20260902180219 79 135 1.0 1.0 0.00 0.00 0.00 1015.0
20260902180119 79 180 1.0 2.0 0.00 0.00 0.00 1015.1
20260902173919 80 180 1.0 2.0 0.00 0.00 0.00 1015.0
20260902173319 79 135 2.0 3.0 0.00 0.00 0.00 1015.0
20260902173219 79 112 1.0 3.0 0.00 0.00 0.00 1015.0
20260902173119 79 67 1.0 2.0 0.00 0.00 0.00 1014.9
20260902172119 78 225 1.0 2.0 0.00 0.00 0.00 1015.0
20260902170219 76 112 1.0 2.0 0.00 0.00 0.00 1014.8
20260902164919 76 202 1.0 2.0 0.00 0.00 0.00 1014.9
20260902163919 75 202 0.0 1.0 0.00 0.00 0.00 1014.6
20260902163219 75 225 0.0 2.0 0.00 0.00 0.00 1014.5
20260902162519 75 225 0.0 1.0 0.00 0.00 0.00 1014.8
20260902162118 75 337 1.0 2.0 0.00 0.00 0.00 1014.7
20260902161719 75 157 0.0 1.0 0.00 0.00 0.00 1014.7
20260902161319 74 157 0.0 1.0 0.00 0.00 0.00 1014.7
20260902160919 74 315 1.0 2.0 0.00 0.00 0.00 1015.0
20260902155319 69 180 0.0 0.0 0.00 0.00 0.00 1015.0
20260902155219 68 225 0.0 1.0 0.00 0.00 0.00 1014.9
20260902155119 68 180 1.0 2.0 0.00 0.00 0.00 1014.9
20260902154719 69 157 0.0 0.0 0.00 0.00 0.00 1014.9
20260902154319 70 337 1.0 2.0 0.00 0.00 0.00 1014.7
20260902154219 70 22 1.0 2.0 0.00 0.00 0.00 1014.8
20260902153819 70 337 1.0 1.0 0.00 0.00 0.00 1014.9
20260902152219 65 90 0.0 1.0 0.00 0.00 0.00 1015.1
20260902152134 65 22 0.0 0.0 0.00 0.00 0.00 1014.9
20260902151120 67 225 2.0 3.0 0.00 0.00 0.00 1014.9
20260902151019 67 225 2.0 3.0 0.00 0.00 0.00 1014.9
20260902150019 67 202 0.0 0.0 0.00 0.00 0.00 1014.9
20260902145920 67 180 0.0 0.0 0.00 0.00 0.00 1014.7
20260902145519 65 225 0.0 2.0 0.00 0.00 0.00 1014.7
20260902144720 66 225 1.0 2.0 0.00 0.00 0.00 1014.5
20260902144619 66 225 1.0 2.0 0.00 0.00 0.00 1014.4
20260902144218 67 180 1.0 3.0 0.00 0.00 0.00 1014.4
20260902143819 69 202 0.0 0.0 0.00 0.00 0.00 1014.5
20260902143719 69 180 0.0 0.0 0.00 0.00 0.00 1014.5
20260902143619 69 202 0.0 0.0 0.00 0.00 0.00 1014.7
20260902143219 67 202 0.0 0.0 0.00 0.00 0.00 1014.1
20260902143121 67 225 0.0 0.0 0.00 0.00 0.00 1014.2
20260902142807 66 225 0.0 0.0 0.00 0.00 0.00 1014.6
20260902142212 64 22 0.0 0.0 0.00 0.00 0.00 1014.3
20260902142019 64 0 1.0 2.0 0.00 0.00 0.00 1014.4
20260902141819 63 22 0.0 1.0 0.00 0.00 0.00 1014.4
20260902141119 60 22 0.0 0.0 0.00 0.00 0.00 1014.2
20260902141019 60 22 0.0 1.0 0.00 0.00 0.00 1014.3
20260902140919 59 315 1.0 2.0 0.00 0.00 0.00 1014.2
20260902140532 58 0 0.0 0.0 0.00 0.00 0.00 1014.2
20260902140419 58 225 0.0 0.0 0.00 0.00 0.00 1014.1
20260902140019 56 202 0.0 0.0 0.00 0.00 0.00 1014.3
20260902135659 54 270 0.0 0.0 0.00 0.00 0.00 1014.0
20260902134919 52 202 0.0 0.0 0.00 0.00 0.00 1014.1
20260902133618 51 315 0.0 0.0 0.00 0.00 0.00 1014.1
20260902133519 51 315 0.0 0.0 0.00 0.00 0.00 1014.1
20260902131919 52 315 0.0 0.0 0.00 0.00 0.00 1014.1
20260902131519 52 315 0.0 0.0 0.00 0.00 0.00 1014.1
20260902131119 53 315 0.0 0.0 0.00 0.00 0.00 1014.2
20260902130719 53 0 0.0 0.0 0.00 0.00 0.00 1014.0
20260902130619 53 0 0.0 0.0 0.00 0.00 0.00 1014.1
20260902125319 54 22 0.0 0.0 0.00 0.00 0.00 1014.3
20260902125218 54 337 0.0 0.0 0.00 0.00 0.00 1014.3
20260902125119 54 337 0.0 0.0 0.00 0.00 0.00 1014.2
20260902124718 54 337 0.0 0.0 0.00 0.00 0.00 1014.2
20260902124619 54 0 0.0 0.0 0.00 0.00 0.00 1014.2
20260902124518 54 0 0.0 0.0 0.00 0.00 0.00 1014.3
20260902124419 54 0 0.0 0.0 0.00 0.00 0.00 1014.3
20260902124019 55 0 0.0 0.0 0.00 0.00 0.00 1014.2
20260902123919 55 0 0.0 0.0 0.00 0.00 0.00 1014.2
20260902123218 54 0 0.0 1.0 0.00 0.00 0.00 1014.3
20260902122519 54 0 0.0 0.0 0.00 0.00 0.00 1014.4
20260902121519 54 0 0.0 0.0 0.00 0.00 0.00 1014.4
20260902115919 53 0 0.0 0.0 0.00 0.00 0.00 1014.4
20260902115819 53 0 0.0 0.0 0.00 0.00 0.00 1014.4
20260902115119 53 0 0.0 0.0 0.00 0.00 0.00 1014.4
20260902114419 54 0 0.0 0.0 0.00 0.00 0.00 1014.5
20260902114019 54 0 0.0 0.0 0.00 0.00 0.00 1014.3
20260902113619 54 0 0.0 0.0 0.00 0.00 0.00 1014.2
20260902113519 54 0 0.0 0.0 0.00 0.00 0.00 1014.3
20260902113419 54 0 0.0 0.0 0.00 0.00 0.00 1014.3
20260902113319 54 0 0.0 0.0 0.00 0.00 0.00 1014.3
20260902113219 54 0 0.0 0.0 0.00 0.00 0.00 1014.5
20260902113119 54 0 0.0 0.0 0.00 0.00 0.00 1014.3
20260902111818 55 0 0.0 0.0 0.00 0.00 0.00 1014.5
20260902110818 56 0 0.0 0.0 0.00 0.00 0.00 1014.5
20260902110418 56 0 0.0 0.0 0.00 0.00 0.00 1014.4
20260902110019 56 0 1.0 2.0 0.00 0.00 0.00 1014.1
20260902105619 56 337 0.0 1.0 0.00 0.00 0.00 1014.3
20260902104919 56 337 0.0 1.0 0.00 0.00 0.00 1014.5
20260902103919 56 337 1.0 1.0 0.00 0.00 0.00 1014.1
20260902103819 56 337 1.0 2.0 0.00 0.00 0.00 1014.2
20260902103719 56 315 1.0 1.0 0.00 0.00 0.00 1014.2
20260902103619 56 315 0.0 0.0 0.00 0.00 0.00 1014.7
20260902103219 56 0 0.0 0.0 0.00 0.00 0.00 1014.0
20260902103119 56 0 0.0 0.0 0.00 0.00 0.00 1014.1
20260902102718 56 0 0.0 0.0 0.00 0.00 0.00 1014.2
20260902102619 56 0 0.0 0.0 0.00 0.00 0.00 1014.3
20260902101919 57 337 0.0 0.0 0.00 0.00 0.00 1014.3
20260902101519 57 337 1.0 1.0 0.00 0.00 0.00 1014.8
20260902100519 57 337 1.0 2.0 0.00 0.00 0.00 1014.9
20260902100419 57 0 0.0 1.0 0.00 0.00 0.00 1014.7
20260902100019 56 0 1.0 2.0 0.00 0.00 0.00 1014.9
20260902095319 56 22 0.0 1.0 0.00 0.00 0.00 1014.3
20260902095219 56 22 0.0 1.0 0.00 0.00 0.00 1014.3
20260902095118 56 22 0.0 0.0 0.00 0.00 0.00 1014.4
20260902095019 56 22 0.0 1.0 0.00 0.00 0.00 1014.3
20260902094619 55 0 0.0 0.0 0.00 0.00 0.00 1014.4
20260902094219 56 22 0.0 1.0 0.00 0.00 0.00 1014.4
20260902094118 56 337 0.0 0.0 0.00 0.00 0.00 1014.6
20260902093419 56 22 0.0 0.0 0.00 0.00 0.00 1014.4
20260902093318 56 22 0.0 0.0 0.00 0.00 0.00 1014.3
20260902092619 56 0 0.0 0.0 0.00 0.00 0.00 1014.3
20260902092519 56 0 0.0 0.0 0.00 0.00 0.00 1014.3
20260902092419 56 0 0.0 0.0 0.00 0.00 0.00 1014.5
20260902092318 56 0 0.0 0.0 0.00 0.00 0.00 1014.3
20260902092218 56 0 0.0 0.0 0.00 0.00 0.00 1014.4
20260902091218 56 0 0.0 0.0 0.00 0.00 0.00 1014.4
20260902090818 56 0 0.0 0.0 0.00 0.00 0.00 1014.4
20260902090718 56 0 0.0 0.0 0.00 0.00 0.00 1014.4
20260902090619 56 0 0.0 0.0 0.00 0.00 0.00 1014.3
20260902085619 57 0 0.0 0.0 0.00 0.00 0.00 1014.4
20260902085519 57 0 0.0 0.0 0.00 0.00 0.00 1014.3
20260902085119 58 337 0.0 0.0 0.00 0.00 0.00 1014.4
20260902084718 58 0 0.0 1.0 0.00 0.00 0.00 1014.5
20260902084619 58 315 0.0 1.0 0.00 0.00 0.00 1014.5
20260902084519 58 315 0.0 1.0 0.00 0.00 0.00 1014.6
20260902084118 58 0 0.0 0.0 0.00 0.00 0.00 1014.6
20260902084018 58 0 0.0 0.0 0.00 0.00 0.00 1014.6
20260902083318 58 337 1.0 1.0 0.00 0.00 0.00 1014.5
20260902081718 57 45 1.0 2.0 0.00 0.00 0.00 1014.5
20260902080418 57 22 0.0 0.0 0.00 0.00 0.00 1014.5
20260902080318 57 0 0.0 0.0 0.00 0.00 0.00 1014.5
20260902080219 57 0 0.0 0.0 0.00 0.00 0.00 1014.5
20260902080119 57 0 0.0 0.0 0.00 0.00 0.00 1014.5
20260902080019 57 0 0.0 0.0 0.00 0.00 0.00 1014.5
20260902075619 57 337 0.0 0.0 0.00 0.00 0.00 1014.5
20260902075219 57 337 0.0 0.0 0.00 0.00 0.00 1014.4
20260902075119 57 337 0.0 0.0 0.00 0.00 0.00 1014.9
20260902075019 57 337 0.0 0.0 0.00 0.00 0.00 1014.3
20260902074919 57 337 0.0 0.0 0.00 0.00 0.00 1014.4
20260902074819 57 337 0.0 0.0 0.00 0.00 0.00 1014.4
20260902074718 57 337 0.0 0.0 0.00 0.00 0.00 1014.4
20260902073719 58 337 0.0 0.0 0.00 0.00 0.00 1014.3
20260902073619 58 337 0.0 0.0 0.00 0.00 0.00 1014.3
20260902073519 58 337 0.0 0.0 0.00 0.00 0.00 1014.4
20260902072818 58 337 0.0 0.0 0.00 0.00 0.00 1014.2
20260902072119 58 337 0.0 0.0 0.00 0.00 0.00 1014.3
20260902072019 58 337 0.0 0.0 0.00 0.00 0.00 1014.1
20260902071918 58 337 0.0 0.0 0.00 0.00 0.00 1014.3
20260902071819 58 337 0.0 0.0 0.00 0.00 0.00 1014.1
20260902071119 58 315 0.0 0.0 0.00 0.00 0.00 1014.1
20260902071019 58 247 0.0 0.0 0.00 0.00 0.00 1014.0
20260902070919 58 247 0.0 0.0 0.00 0.00 0.00 1014.1
20260902070219 58 247 0.0 0.0 0.00 0.00 0.00 1014.0
20260902065519 59 292 0.0 0.0 0.00 0.00 0.00 1014.1
20260902064818 59 202 0.0 0.0 0.00 0.00 0.00 1013.9
20260902063219 59 202 0.0 0.0 0.00 0.00 0.00 1014.0
20260902062819 60 270 0.0 0.0 0.00 0.00 0.00 1013.9
20260902061819 60 270 0.0 0.0 0.00 0.00 0.00 1013.8
20260902061719 61 270 0.0 0.0 0.00 0.00 0.00 1013.9
20260902060719 62 270 0.0 0.0 0.00 0.00 0.00 1013.9
20260902060319 62 225 0.0 0.0 0.00 0.00 0.00 1014.1
20260902055619 63 157 0.0 0.0 0.00 0.00 0.00 1013.7
20260902055518 63 157 0.0 0.0 0.00 0.00 0.00 1013.6
20260902055419 63 157 0.0 0.0 0.00 0.00 0.00 1013.6
20260902055018 64 157 0.0 0.0 0.00 0.00 0.00 1013.7
20260902054618 65 180 0.0 0.0 0.00 0.00 0.00 1013.6
20260902054519 65 180 0.0 0.0 0.00 0.00 0.00 1013.7
20260902054419 65 180 0.0 1.0 0.00 0.00 0.00 1013.7
20260902054019 65 202 0.0 0.0 0.00 0.00 0.00 1013.7
20260902053919 65 202 0.0 0.0 0.00 0.00 0.00 1013.7
20260902053219 66 157 0.0 0.0 0.00 0.00 0.00 1013.6
20260902052218 66 202 1.0 2.0 0.00 0.00 0.00 1013.7
20260902052119 66 202 1.0 2.0 0.00 0.00 0.00 1014.0
20260902052019 66 225 2.0 3.0 0.00 0.00 0.00 1013.7
20260902051619 66 225 0.0 2.0 0.00 0.00 0.00 1013.8
20260902051519 66 247 1.0 2.0 0.00 0.00 0.00 1013.6
20260902051119 67 157 0.0 1.0 0.00 0.00 0.00 1013.9
20260902050418 67 225 1.0 2.0 0.00 0.00 0.00 1013.8
20260902050319 67 180 1.0 2.0 0.00 0.00 0.00 1013.7
20260902045619 67 247 2.0 3.0 0.00 0.00 0.00 1013.7
20260902045519 67 225 2.0 4.0 0.00 0.00 0.00 1013.7
20260902045118 67 225 1.0 2.0 0.00 0.00 0.00 1013.7
20260902045019 67 225 1.0 2.0 0.00 0.00 0.00 1013.5
20260902044918 67 202 1.0 2.0 0.00 0.00 0.00 1013.5
20260902043618 67 225 2.0 3.0 0.00 0.00 0.00 1013.4
20260902043218 67 180 0.0 0.0 0.00 0.00 0.00 1013.3
20260902043119 67 135 0.0 0.0 0.00 0.00 0.00 1013.3
20260902042719 68 157 0.0 0.0 0.00 0.00 0.00 1013.3
20260902042019 68 202 0.0 0.0 0.00 0.00 0.00 1013.2
20260902041019 69 202 2.0 3.0 0.00 0.00 0.00 1013.0
20260902040619 69 225 2.0 4.0 0.00 0.00 0.00 1013.1
20260902040219 69 202 0.0 0.0 0.00 0.00 0.00 1013.0
20260902040119 69 157 1.0 3.0 0.00 0.00 0.00 1012.9
20260902035718 69 225 1.0 2.0 0.00 0.00 0.00 1012.9
20260902034719 70 180 1.0 2.0 0.00 0.00 0.00 1012.6
20260902034619 70 225 2.0 3.0 0.00 0.00 0.00 1012.5
20260902034519 70 225 2.0 4.0 0.00 0.00 0.00 1012.5
20260902034419 70 180 2.0 4.0 0.00 0.00 0.00 1012.4
20260902034318 70 202 2.0 3.0 0.00 0.00 0.00 1012.6
20260902034218 70 157 1.0 2.0 0.00 0.00 0.00 1012.4
20260902032919 70 225 1.0 3.0 0.00 0.00 0.00 1012.3
20260902032218 71 202 0.0 2.0 0.00 0.00 0.00 1012.3
20260902032119 71 225 2.0 3.0 0.00 0.00 0.00 1012.3
20260902030819 72 202 1.0 2.0 0.00 0.00 0.00 1012.3
20260902030419 72 180 0.0 2.0 0.00 0.00 0.00 1012.2
20260902030019 72 202 0.0 2.0 0.00 0.00 0.00 1012.1
20260902024418 73 225 1.0 2.0 0.00 0.00 0.00 1011.9
20260902023118 74 180 0.0 1.0 0.00 0.00 0.00 1011.7
20260902021518 75 202 2.0 4.0 0.00 0.00 0.00 1011.7
20260902021418 75 292 1.0 4.0 0.00 0.00 0.00 1011.6
20260902021319 75 225 3.0 4.0 0.00 0.00 0.00 1011.6
20260902020918 75 225 2.0 3.0 0.00 0.00 0.00 1011.6
20260902020219 76 202 0.0 0.0 0.00 0.00 0.00 1011.6
20260902014319 77 202 4.0 5.0 0.00 0.00 0.00 1011.9
20260902013918 77 225 3.0 6.0 0.00 0.00 0.00 1011.7
20260902013819 77 135 3.0 8.0 0.00 0.00 0.00 1011.7
20260902013418 78 225 4.0 7.0 0.00 0.00 0.00 1011.7
20260902013318 78 202 5.0 7.0 0.00 0.00 0.00 1011.8
20260902012919 78 225 3.0 7.0 0.00 0.00 0.00 1012.0
20260902012518 78 225 2.0 3.0 0.00 0.00 0.00 1011.9
20260902012419 78 202 2.0 3.0 0.00 0.00 0.00 1011.9
20260902012319 79 180 2.0 3.0 0.00 0.00 0.00 1011.9
20260902012219 79 225 1.0 3.0 0.00 0.00 0.00 1011.8
20260902010919 80 157 2.0 4.0 0.00 0.00 0.00 1011.9
20260902010219 80 180 5.0 7.0 0.00 0.00 0.00 1012.0
20260902005519 80 180 1.0 2.0 0.00 0.00 0.00 1011.9
20260902005419 80 225 2.0 2.0 0.00 0.00 0.00 1011.9
20260902005019 80 157 3.0 9.0 0.00 0.00 0.00 1011.9
20260902004018 81 180 4.0 6.0 0.00 0.00 0.00 1011.9
20260902003919 81 180 5.0 7.0 0.00 0.00 0.00 1011.9
20260902003819 81 202 2.0 4.0 0.00 0.00 0.00 1011.9
20260902003719 81 157 1.0 2.0 0.00 0.00 0.00 1011.9
20260902003019 81 180 1.0 2.0 0.00 0.00 0.00 1011.9
20260902002618 82 225 2.0 2.0 0.00 0.00 0.00 1012.0
20260902002218 82 157 1.0 2.0 0.00 0.00 0.00 1011.7
20260902001219 82 270 3.0 4.0 0.00 0.00 0.00 1011.7
20260902001118 82 225 3.0 5.0 0.00 0.00 0.00 1012.0
20260902000419 83 202 6.0 9.0 0.00 0.00 0.00 1011.9
20260901235118 83 180 5.0 7.0 0.00 0.00 0.00 1011.8
20260901234719 84 202 6.0 9.0 0.00 0.00 0.00 1012.0
20260901234318 84 225 7.0 9.0 0.00 0.00 0.00 1011.9
20260901233318 85 157 2.0 3.0 0.00 0.00 0.00 1012.0
20260901232619 85 157 4.0 6.0 0.00 0.00 0.00 1012.1
20260901231919 85 247 4.0 7.0 0.00 0.00 0.00 1011.8
20260901231819 86 157 6.0 9.0 0.00 0.00 0.00 1011.9
20260901231719 86 225 8.0 11.0 0.00 0.00 0.00 1012.1
20260901231319 86 225 4.0 6.0 0.00 0.00 0.00 1011.9
20260901231219 86 315 5.0 9.0 0.00 0.00 0.00 1011.9
20260901230819 87 225 5.0 8.0 0.00 0.00 0.00 1011.9
20260901230719 87 202 4.0 8.0 0.00 0.00 0.00 1011.9
20260901230619 87 225 4.0 7.0 0.00 0.00 0.00 1011.9
20260901225619 90 180 3.0 6.0 0.00 0.00 0.00 1012.1
20260901225518 90 202 3.0 6.0 0.00 0.00 0.00 1012.0
20260901224518 93 315 3.0 6.0 0.00 0.00 0.00 1011.9
20260901224418 93 202 2.0 2.0 0.00 0.00 0.00 1012.0
20260901224319 93 112 3.0 6.0 0.00 0.00 0.00 1011.9
20260901224219 93 225 4.0 7.0 0.00 0.00 0.00 1012.0
20260901224119 93 247 6.0 10.0 0.00 0.00 0.00 1012.0
20260901224019 93 247 2.0 6.0 0.00 0.00 0.00 1011.9